Location: Bullenkuhlen
(53.7689°N, 9.7495°E)
Time: 08:35:47
(UTC+00:00)

Cosmos 2360 - Visible Passes

Search period start: 13 August 2020 00:00
Search period end: 23 August 2020 00:00
Orbit: 844 x 858 km, 70.8° (Epoch: 12 August)

Date Brightness Start Highest point End Pass type
(mag) Time Alt. Az. Time Alt. Az. Time Alt. Az.
13 Aug 6.1 20:19:21 10° NW 20:23:59 26° WSW 20:28:36 10° SSW visible
14 Aug 6.1 20:07:12 10° NW 20:11:49 26° WSW 20:16:25 10° SSW visible
15 Aug 6.2 19:55:01 10° NW 19:59:39 26° WSW 20:04:15 10° SSW visible
16 Aug 6.2 19:42:51 10° NW 19:47:28 26° WSW 19:52:04 10° SSW visible
17 Aug 6.3 19:30:42 10° NW 19:35:18 26° WSW 19:39:54 10° SSW visible
18 Aug 6.3 19:18:32 10° NW 19:23:08 25° WSW 19:27:43 10° SSW visible
